Regional Weather Roundup
Issued by NWS Grand Forks, ND

Home | Current Version | Previous Version | Text Only | Print | Product List | Glossary Off
Versions: 1 2 3 4 5 6 7 8 9 10 11 12 13 14 15 16 17 18 19 20 21 22 23 24 25 26 27 28 29 30 31 32 33 34 35 36 37 38 39 40 41 42 43 44 45 46 47 48 49 50

000
ASUS43 KFGF 210131
RWRFGF
PRAIRIE TO PINES  WEATHER ROUNDUP
NATIONAL WEATHER SERVICE EASTERN NORTH DAKOTA/GRAND FORKS ND
800 PM CDT SAT SEP 20 2014

 **SATELLITE DATA USED TO AUGMENT SKY COVER AT AUTOMATED STATIONS**
 *****  WEATHER ACROSS EASTERN NORTH DAKOTA  *****

CITY           SKY/WX    TMP DP  RH WIND       PRES   REMARKS
GRAND FORKS    CLOUDY    57  52  83 N8        29.88R
GRAND FRKS AFB CLOUDY    58  55  92 NE9       29.89R
GRAND FRKS NWS   N/A     55 N/A N/A N6          N/A
DEVILS LAKE    MOCLDY    61  45  55 NW12      29.93R
FARGO          PTCLDY    59  50  72 NW10      29.86R
WAHPETON ARPT  CLEAR     57  46  67 W12       29.88R
$$

 ***** WEATHER ACROSS CENTRAL AND WESTERN NORTH DAKOTA  *****

CITY           SKY/WX    TMP DP  RH WIND       PRES   REMARKS
BISMARCK       CLEAR     66  37  34 NW15      30.03S
MINOT          CLEAR     63  39  41 NW18      30.02R
JAMESTOWN      CLEAR     61  41  47 NW12      29.94R
MINOT AFB      CLEAR     62  42  48 NW15      30.01R
GARRISON         N/A     63  39  41 NW16G26   30.04R
WILLISTON      CLEAR     64  35  34 NW15      30.11R
DICKINSON      PTCLDY    61  34  36 NW10      30.12R
HETTINGER      CLEAR     60  35  39 NW10      30.15R
$$

 *****  OTHER AIRPORT OBSERVATIONS IN OUR AREA  *****

CITY           SKY/WX    TMP DP  RH WIND       PRES   REMARKS
WALHALLA       LGT RAIN  54  54 100 NW6       29.92R
GRAFTON AIRPOR LGT RAIN  54  54 100 N5        29.89R
VALLEY CITY AR MOCLDY    59  45  58 NW10      29.92R
CANDO          CLOUDY    59  45  58 NW18G26   29.96R
CAVALIER APRT  MOCLDY    55  52  88 NW10      29.91R FOG
GWINNER        CLEAR     63  45  51 W8        29.94R
SHEYENNE NWR     N/A     64  46  52 NW7       29.95S
ROLLA          CLOUDY    59  43  55 NW18G25   29.97R
 ***** THE ABOVE OBSERVATIONS ARE NON NWS ARE NOT QUALITY
       CONTROLLED AND MAY MIS-REPORT RAIN FOR SNOW...
$$

  *****  WEATHER ACROSS NORTHERN MINNESOTA  *****

CITY           SKY/WX    TMP DP  RH WIND       PRES   REMARKS
FLAG ISLAND    LGT RAIN  54  50  87 NW16      29.83R
WARROAD        DRIZZLE   52  48  87 NW7       29.86R
ROSEAU         MOCLDY    52  46  82 N6        29.86R
HALLOCK        PTCLDY    54  52  94 NW3       29.87R
THF RVR FALLS  CLOUDY    55  50  82 N14       29.87R
BAUDETTE       LGT RAIN  52  49  89 NW10      29.81R
WASKISH        LGT RAIN  50  48  93 NW7       29.83R
CROOKSTON      MOCLDY    55  52  88 N7          N/A
STEPHEN NDAWN    N/A     55  54  94 N5          N/A
GREENBUSH NDAW   N/A     54  52  94 W7          N/A
$$
  *****  WEATHER ACROSS CENTRAL AND WEST MINNESOTA  *****

CITY           SKY/WX    TMP DP  RH WIND       PRES   REMARKS
FOSSTON        RAIN      54  48  82 NW7       29.87R
BEMIDJI        CLOUDY    51  48  91 NW10G16   29.84R
PARK RAPIDS    CLOUDY    57  49  74 NW21      29.82R
ELBOW LAKE     FAIR      55  51  85 W5        29.87R
WADENA         PTCLDY    55  48  76 W7        29.84R
DETROIT LAKES  CLEAR     55  48  76 NW15      29.88R
MOORHEAD       PTCLDY    55  54  94 N6        29.88R
FERGUS FALLS   PTCLDY    55  48  76 W6        29.87S
MORRIS MN      CLEAR     55  52  88 W6        29.89R
STAPLES        CLEAR     55  48  76 W12       29.83R
$$
  *****  WEATHER ELSEWHERE ACROSS MINNESOTA  *****

CITY           SKY/WX    TMP DP  RH WIND       PRES   REMARKS
DULUTH         RAIN      55  51  86 NW13      29.69S FOG
INTRNTL FALLS  CLOUDY    55  49  80 NW10      29.75R
ELY            CLOUDY    52  48  87 CALM      29.71S
CLOQUET        HVY RAIN  54  52  94 CALM      29.71S
WHEATON        CLEAR     57  48  72 W6        29.92R
BRAINERD       MOCLDY    56  49  77 W14G23    29.80R
HIBBING        HVY RAIN  55  53  93 W3        29.70S FOG
ALEXANDRIA     CLEAR     58  50  75 NW10      29.88R
SAINT CLOUD    CLEAR     60  49  66 NW18      29.82R
MINNEAPOLIS    MOCLDY    59  56  89 W13G18    29.81R
$$

  *****  WEATHER ACROSS SOUTH DAKOTA  *****

CITY           SKY/WX    TMP DP  RH WIND       PRES   REMARKS
SIOUX FALLS    PTCLDY    68  47  46 NW14G24   29.98R
BROOKINGS      NOT AVBL
WATERTOWN      PTCLDY    60  45  57 W8        29.97R
HURON          PTCLDY    66  42  41 NW10      30.00R
SISSETON         N/A     60  49  66 NW8       29.91R
ABERDEEN       CLEAR     64  44  48 W13       29.99R
MITCHELL       PTCLDY    68  44  42 N10       30.01R
PIERRE         CLEAR     63  36  36 NW8       30.05R
MOBRIDGE       PTCLDY    62  45  53 N9        30.04R
RAPID CITY     CLEAR     65  40  39 N9        30.20R
$$

  *****  SOME WEATHER IN NEARBY STATES *****

CITY           SKY/WX    TMP DP  RH WIND       PRES   REMARKS
GLASGOW MT     CLEAR     65  35  33 NW12      30.17R
GREAT FALLS MT CLEAR     67  42  40 NE14      30.21R
CHEYENNE WY    PTCLDY    69  44  40 NE8       30.31R
SCOTTSBLUFF NE CLEAR     73  42  32 N13       30.20R
OMAHA NE       PTCLDY    78  58  49 W3        29.92S
DES MOINES IA  PTCLDY    74  58  57 W7        29.86S
DAVENPORT IA   CLEAR     70  65  84 SW9       29.81F
CHICAGO IL     PTCLDY    71  62  73 S3        29.80S
EAU CLAIRE WI  CLOUDY    58  56  93 SW6       29.72F
LA CROSSE WI   LGT RAIN  68  60  75 W24       29.74R
$$

  *****  SOME NATIONAL WEATHER *****

CITY           SKY/WX    TMP DP  RH WIND       PRES   REMARKS
LA GUARDIA NY  PTCLDY    69  62  78 S12       30.11S
RALEIGH NC     CLOUDY    70  60  70 NE6       30.03S
ATLANTA GA     PTCLDY    76  60  57 E5        30.04S
NEW ORLEANS LA PTCLDY    81  68  64 E7        29.94S
OKLAHOMA CITY  PTCLDY    78  67  68 SE7       29.99R
ALBUQUERQUE NM MOCLDY    82  45  27 SE18G26   30.11R
SALT LAKE CITY MOCLDY    78  54  43 W9        30.05S
LOS ANGELES CA MOSUNNY   72  61  68 W14       29.89S
BOISE ID       CLEAR     84  46  26 N9        30.00F
SEATTLE WA     MOSUNNY   73  56  54 N9        29.94F
$$

*** WEATHER ACROSS MANITOBA...SASKATCHEWAN AND ONTARIO ***
                ***ONTARIO***

CITY           SKY/WX    TMP DP  RH WIND       PRES   REMARKS
GERALDTON      CLOUDY   N/A N/A N/A NW3         N/A
THUNDER BAY    CLOUDY    57  52  82 E9        29.73
SIOUX LOOKOUT  MOCLDY    50  46  87 VRB2      29.77R
TORONTO        MOCLDY    72  63  73 S10       29.79S
BIG TROUT LK   CLOUDY    41  32  70 N6        29.85R
PICKLE LAKE    CLOUDY    45  37  76 NE6       29.81R
DRYDEN         MOCLDY    54  48  82 N6        29.77R
KENORA         LGT RAIN  50  48  93 NW10      29.82R
$$
                *** MANITOBA***

CITY           SKY/WX    TMP DP  RH WIND       PRES   REMARKS
BRANDON        LGT RAIN  59  48  67 NW12      29.97R
DAUPHIN        CLOUDY    57  50  77 NW8       29.94R
ISLAND LAKE    MOCLDY    50  45  81 CALM      29.86R
PILOT MOUND    NOT AVBL
THE PAS        CLOUDY    57  52  82 NW10      29.90R
THOMPSON       MOCLDY    45  41  87 N3        29.91R
WINNIPEG       MOCLDY    54  52  94 NW8       29.88R
LYNN LAKE      CLOUDY    46  43  87 SW5       29.93R
CHURCHILL      MOCLDY    37  36  93 NW3       29.94R
GILLAM         PTCLDY    39  37  93 E5        29.90R
$$
                ***SASKATCHEWAN***

CITY           SKY/WX    TMP DP  RH WIND       PRES   REMARKS
ESTEVAN        PTCLDY    57  43  58 NW9       30.07
KINDERSLEY     PTCLDY    61  39  44 NW5       30.15R
LLOYDMINSTER   PTCLDY    59  36  41 W8        30.09S
PRINCE ALBERT  PTCLDY    59  45  58 N3        30.01
REGINA         PTCLDY    59  43  55 NW10      30.08R
YORKTON        CLOUDY    59  45  58 NW12G17   30.00R
N. BATTLEFORD  CLEAR     63  34  34 NW12      30.10R
LA RONGE       MOCLDY    55  46  71 W12       30.00R
SASKATOON      PTCLDY    61  37  41 NW8       30.08R
SWIFT CURRENT  CLEAR     59  34  38 NW10      30.16R
$$
NOTE: THESE ARE AUTOMATED STATIONS WITH LIMITED QUALITY CONTROL
      "FAIR" INDICATES FEW OR NO CLOUDS BELOW 12,000 FEET WITH NO
      SIGNIFICANT WEATHER AND/OR OBSTRUCTIONS TO VISIBILITY.
      SKY/WX - SKY CONDITION AND SIGNIFICANT WEATHER.
      TMP - AIR TEMPERATURE.    DP   - DEWPOINT TEMPERATURE.
      RH  - RELATIVE HUMIDITY.  PRES - PRESSURE.
      HX  - HEAT INDEX.         WCI  - WIND CHILL INDEX.
$


USA.gov is the U.S. government's official web portal to all federal, state and local government web resources and services.